Location: Livorno
(43.5500°N, 10.3170°E)
Time: 19:58:09
(UTC+01:00)

Envisat - Pass Details

Date: 02 November 2020
Orbit: 764 x 766 km, 98.1° (Epoch: 05 December)

Event Time Altitude Azimuth Distance (km) Brightness Sun altitude
Rises 18:52:49 0° 216° (SW) 3,221 6.8 -19.4°
Reaches altitude 10° 18:56:24 10° 243° (WSW) 2,302 6.4 -20.0°
Maximum altitude 18:58:48 13° 272° (W) 2,078 6.3 -20.5°
Drops below altitude 10° 19:01:14 10° 300° (WNW) 2,310 6.3 -20.9°
Sets 19:04:51 0° 327° (NNW) 3,242 6.7 -21.6°
